This demonstration page uses our WeatherBlox Daily Observations layout. Learn more.

Left ArrowRight Arrow

Hourly Observations for March 28, 2017

Temp ( °F °C ) Dew Point ( °F °C ) Humidity (%) Winds ( mph kmh ) Pressure ( in mb ) Visibility ( mi km ) Precip ( " mm )
12:53 am 00:53 Cloudy with Mist and Fog 59 15 58 14.4 96 96 N N/A 29.84 1010 6 10 N/A
1:53 am 01:53 Mostly Cloudy with Mist and Fog 58 14.4 57 13.9 97 97 N N/A 29.83 1010 6 10 N/A
2:53 am 02:53 Cloudy with Mist and Fog 57 13.9 57 13.9 100 100 SSW 3 6 29.84 1010 5 8 N/A
3:02 am 03:02 Cloudy 57 13.9 57 13.9 100 100 N N/A 29.83 1010 7 11 N/A
3:50 am 03:50 Cloudy 57 14 57 14 100 100 N N/A 29.83 1010 9 14 N/A
3:53 am 03:53 Cloudy 57 13.9 57 13.9 100 100 N N/A 29.83 1010 9 14 N/A
4:49 am 04:49 Cloudy 57 14 57 14 100 100 N N/A 29.83 1010 7 11 N/A
4:53 am 04:53 Cloudy 57 13.9 57 13.9 100 100 N N/A 29.83 1010 7 11 N/A
5:53 am 05:53 Cloudy with Light Rain 57 13.9 56 13.3 96 96 WSW 5 7 29.84 1011 7 11 N/A
6:16 am 06:16 Cloudy with Mist and Fog 57 13.9 56 13.3 96 96 WSW 5 7 29.85 1011 6 10 N/A
6:49 am 06:49 Cloudy with Mist and Fog 55 13 55 13 100 100 WSW 5 7 29.88 1012 3 5 N/A
6:53 am 06:53 Cloudy with Mist and Fog 56 13.3 56 13.3 100 100 WSW 6 9 29.87 1012 3 4 N/A
7:01 am 07:01 Cloudy with Mist and Fog 56 13.3 56 13.3 100 100 WSW 5 7 29.88 1012 3 4 N/A
7:14 am 07:14 Cloudy with Mist and Fog 56 13.3 56 13.3 100 100 W 6 9 29.88 1012 3 5 N/A
7:22 am 07:22 Cloudy with Mist and Fog 56 13.3 56 13.3 100 100 WSW 6 9 29.88 1012 3 5 N/A
7:43 am 07:43 Cloudy with Light Rain 57 13.9 56 13.3 96 96 WNW 9 15 29.91 1013 6 10 0.01 0.25
7:53 am 07:53 Cloudy 56 13.3 55 12.8 97 97 NW 10 17 29.90 1013 8 13 0.01 0.25
8:53 am 08:53 Cloudy with Mist and Fog 56 13.3 54 12.2 93 93 N 10 17 29.92 1013 5 8 N/A
9:18 am 09:18 Cloudy 56 13.3 54 12.2 93 93 N 8 13 29.94 1014 7 11 N/A
9:53 am 09:53 Cloudy 56 13.3 54 12.2 93 93 N 6 9 29.95 1014 8 13 N/A
10:53 am 10:53 Cloudy 57 13.9 54 12.2 90 90 N 8 13 29.98 1015 9 14 N/A
11:53 am 11:53 Cloudy 59 15 54 12.2 83 83 N 7 11 29.99 1016 9 14 N/A
12:46 pm 12:46 Cloudy 57 13.9 53 11.7 87 87 NNW 9 15 30.00 1016 8 13 N/A
12:53 pm 12:53 Cloudy 57 13.9 53 11.7 87 87 NNW 8 13 30.01 1016 8 13 N/A
1:24 pm 13:24 Cloudy 59 15 53 11.7 81 81 N 13 20 30.00 1016 8 13 N/A
1:53 pm 13:53 Cloudy 59 15 53 11.7 81 81 NNW 10 17 30.01 1016 7 11 N/A
2:53 pm 14:53 Cloudy with Haze 58 14.4 52 11.1 81 81 N 9 15 30.02 1017 6 10 N/A
3:53 pm 15:53 Cloudy with Haze 57 13.9 52 11.1 83 83 NNW 9 15 30.03 1017 6 10 N/A
4:53 pm 16:53 Cloudy with Haze 57 13.9 51 10.6 81 81 NNW 7 11 30.05 1018 6 10 N/A
5:53 pm 17:53 Cloudy 57 13.9 51 10.6 81 81 N 6 9 30.06 1018 7 11 N/A
6:53 pm 18:53 Cloudy 56 13.3 50 10 81 81 N 7 11 30.07 1018 9 14 N/A
7:53 pm 19:53 Cloudy 55 12.8 49 9.4 80 80 N 5 7 30.09 1019 8 13 N/A
8:53 pm 20:53 Cloudy 55 12.8 48 8.9 77 77 N 7 11 30.12 1020 10 16 N/A
9:53 pm 21:53 Cloudy 54 12.2 49 9.4 83 83 N 6 9 30.15 1021 9 14 N/A
10:53 pm 22:53 Cloudy 53 11.7 48 8.9 83 83 NNE 7 11 30.15 1021 9 14 N/A
11:53 pm 23:53 Cloudy 53 11.7 48 8.9 83 83 NNE 8 13 30.16 1021 9 14 N/A

Powered by AerisWeather